Temp
-2 -2 -2 -3 -2 -3 -3 -3 -3 -3 -3 -3 -2 -2 -2 -1 -1 -1 -0 1 1 2 4 5 6 9 11 12 13 13 13 14 14 16 17 17 16 15 14 13 13 13 13
-2 -3 -3 -3 -3 -3 -3 -4 -4 -4 -4 -4 -3 -3 -2 -2 -2 -2 -1 -0 0 1 2 2 4 4 8 12 13 13 13 13 13 14 15 15 15 14 14 13 13 13 13
-3 -3 -3 -3 -4 -4 -4 -4 -4 -4 -4 -4 -4 -4 -3 -3 -3 -2 -2 -2 -1 -1 -1 0 1 0 1 2 6 11 13 13 13 13 14 15 13 13 13 13 12 13 13
-4 -4 -4 -4 -4 -4 -4 -5 -5 -5 -5 -5 -5 -4 -4 -4 -3 -3 -2 -2 -2 -2 -2 -2 -2 -2 -2 -1 1 4 7 12 13 13 13 13 12 12 12 13 12 12 12
-4 -4 -5 -5 -5 -5 -5 -5 -5 -6 -5 -5 -5 -5 -5 -4 -4 -4 -3 -3 -3 -3 -3 -3 -3 -3 -3 -1 -0 0 2 5 13 13 13 13 13 12 13 13 13 12 12
-4 -5 -5 -5 -6 -6 -6 -6 -6 -6 -6 -6 -6 -6 -5 -5 -4 -5 -4 -4 -4 -4 -4 -4 -4 -4 -3 -2 -1 -1 -0 -1 0 11 14 13 13 13 13 13 12 11 11
-4 -5 -5 -6 -6 -7 -7 -7 -7 -7 -7 -7 -7 -7 -6 -5 -5 -6 -5 -5 -5 -5 -5 -5 -4 -4 -4 -4 -2 -2 -2 -0 -1 -1 1 9 9 13 14 13 12 12 12
-5 -6 -6 -7 -7 -7 -7 -8 -8 -7 -8 -8 -8 -7 -7 -6 -6 -6 -6 -6 -6 -6 -6 -5 -5 -5 -5 -5 -5 -4 -4 -4 -2 -2 -1 -0 -0 3 5 12 12 12 10
-6 -6 -7 -7 -8 -8 -8 -8 -8 -8 -8 -8 -9 -9 -8 -8 -6 -6 -7 -7 -7 -7 -7 -7 -6 -6 -5 -5 -5 -5 -5 -5 -4 -3 -3 -2 -1 1 4 8 11 9 3
-6 -6 -7 -7 -8 -8 -8 -8 -8 -8 -9 -9 -9 -10 -9 -9 -8 -7 -8 -8 -8 -8 -8 -8 -7 -7 -6 -6 -6 -6 -5 -5 -5 -4 -4 -3 -2 -1 1 0 0 5 6
-6 -6 -7 -7 -8 -8 -8 -8 -8 -9 -9 -9 -9 -10 -10 -10 -9 -8 -9 -9 -9 -8 -9 -9 -9 -8 -8 -7 -8 -8 -7 -7 -6 -5 -5 -5 -5 -4 -3 -3 -1 -0 -0
-6 -7 -7 -8 -8 -8 -9 -9 -9 -9 -9 -9 -9 -10 -10 -10 -10 -10 -10 -10 -11 -10 -10 -10 -10 -10 -10 -9 -9 -9 -9 -8 -7 -7 -6 -6 -6 -6 -5 -4 -3 -1 -0
-6 -7 -7 -8 -8 -8 -8 -8 -8 -9 -9 -9 -9 -10 -10 -10 -11 -11 -11 -11 -12 -12 -12 -12 -12 -11 -11 -11 -11 -11 -11 -10 -9 -8 -8 -7 -6 -6 -5 -5 -4 -2 -1
-6 -7 -7 -7 -8 -8 -8 -8 -8 -8 -9 -9 -10 -10 -10 -10 -11 -11 -11 -12 -13 -13 -13 -13 -13 -13 -13 -13 -13 -12 -12 -12 -11 -10 -9 -9 -8 -6 -6 -6 -5 -5 -4
-7 -7 -7 -8 -8 -9 -9 -9 -9 -9 -9 -9 -10 -10 -10 -11 -11 -12 -12 -12 -13 -14 -14 -14 -14 -14 -14 -14 -14 -14 -13 -13 -13 -12 -11 -10 -9 -7 -7 -6 -6 -5 -5
-7 -8 -8 -9 -9 -9 -9 -10 -11 -10 -10 -10 -10 -10 -11 -11 -12 -12 -13 -13 -14 -14 -14 -15 -15 -15 -15 -15 -15 -15 -15 -15 -14 -13 -12 -12 -11 -9 -8 -7 -7 -6 -5
-8 -9 -9 -10 -10 -10 -11 -11 -11 -12 -12 -12 -12 -11 -11 -12 -12 -13 -14 -14 -14 -14 -14 -15 -15 -16 -15 -15 -16 -15 -15 -16 -15 -14 -13 -13 -12 -11 -9 -8 -7 -7 -6
-9 -10 -11 -11 -11 -11 -12 -12 -12 -12 -12 -12 -13 -13 -12 -12 -13 -14 -14 -14 -14 -14 -14 -15 -15 -15 -15 -16 -16 -17 -16 -16 -16 -16 -15 -14 -14 -12 -11 -9 -8 -8 -7
-10 -11 -11 -11 -12 -12 -12 -12 -12 -12 -12 -12 -12 -13 -14 -13 -13 -14 -14 -14 -14 -14 -14 -14 -15 -16 -16 -16 -17 -17 -17 -17 -17 -17 -16 -15 -15 -13 -12 -11 -10 -9 -7
-11 -11 -11 -11 -12 -12 -12 -12 -12 -13 -13 -13 -13 -15 -15 -13 -13 -14 -14 -15 -14 -14 -15 -15 -15 -16 -16 -17 -17 -17 -17 -17 -17 -17 -17 -16 -15 -13 -12 -12 -11 -10 -9
-11 -11 -12 -12 -12 -13 -13 -14 -14 -14 -14 -14 -15 -17 -16 -15 -15 -15 -16 -16 -16 -16 -16 -16 -16 -16 -16 -17 -17 -17 -17 -17 -18 -18 -17 -17 -16 -14 -14 -12 -12 -11 -10
-12 -12 -12 -13 -14 -14 -14 -15 -15 -16 -16 -16 -16 -17 -18 -17 -17 -17 -17 -18 -18 -18 -18 -18 -17 -17 -17 -18 -18 -18 -18 -18 -18 -18 -18 -18 -17 -15 -15 -13 -12 -12 -11
-12 -13 -14 -14 -15 -16 -17 -17 -17 -17 -18 -18 -18 -18 -18 -19 -19 -19 -19 -20 -20 -20 -20 -20 -20 -20 -19 -19 -19 -19 -19 -19 -19 -19 -19 -18 -18 -17 -16 -15 -14 -13 -13
-13 -14 -15 -16 -17 -17 -18 -19 -19 -19 -20 -20 -20 -20 -20 -20 -21 -21 -22 -22 -22 -22 -22 -22 -21 -21 -21 -21 -20 -20 -19 -20 -19 -19 -19 -19 -18 -18 -17 -16 -15 -15 -14
-14 -15 -15 -17 -18 -19 -19 -20 -20 -21 -21 -22 -22 -22 -22 -22 -23 -23 -23 -24 -23 -23 -22 -22 -23 -22 -21 -21 -22 -21 -20 -19 -19 -19 -19 -19 -19 -19 -18 -17 -17 -16 -15
-15 -16 -17 -18 -19 -20 -20 -21 -21 -21 -21 -23 -23 -23 -24 -24 -24 -25 -25 -25 -24 -24 -24 -24 -23 -22 -22 -23 -23 -20 -20 -20 -19 -19 -19 -19 -19 -19 -19 -19 -18 -17 -15
Height
808 806 803 800 791 791 789 787 782 777 774 769 764 760 757 750 744 739 734 729 726 719 715 710 707 701 697 696 697 698 698 699 696 694 696 696 697 698 700 701 703 706 709
812 809 807 802 797 793 790 789 784 780 777 773 767 763 757 752 746 739 737 732 724 718 713 709 706 699 690 691 689 688 689 691 690 688 690 689 690 690 692 694 695 697 699
814 811 808 805 799 795 792 792 789 786 782 776 769 764 760 755 750 745 739 732 728 722 717 712 707 700 694 688 684 684 682 683 683 681 680 682 683 684 686 687 689 689 692
817 813 810 806 803 798 797 795 791 789 786 779 771 767 766 761 756 748 741 737 730 725 719 714 709 703 697 691 686 682 678 674 674 672 672 674 673 676 677 680 683 684 686
818 816 813 809 808 802 800 797 795 792 787 781 777 772 770 765 761 754 748 742 735 730 723 717 712 708 701 693 689 683 677 672 664 664 663 664 661 665 666 667 670 671 678
820 817 814 812 808 803 803 799 798 794 790 786 783 780 774 770 766 759 753 746 739 734 726 720 713 703 697 694 689 688 681 674 665 656 651 653 650 654 657 659 660 666 670
821 819 816 814 810 807 804 802 800 798 795 791 788 785 780 776 771 763 757 750 743 738 731 722 713 707 699 693 688 685 682 676 672 667 659 644 647 647 647 649 650 654 653
824 822 819 818 816 814 811 806 804 802 798 796 792 788 785 780 773 767 757 753 745 739 733 729 722 717 710 702 694 687 681 677 672 668 665 660 649 645 637 640 638 643 649
827 826 823 821 820 818 814 813 810 805 801 799 798 792 788 781 776 768 759 754 748 745 742 737 732 725 718 709 701 695 690 685 677 671 666 662 652 644 636 635 633 638 644
829 828 827 827 824 823 819 815 813 809 806 805 802 797 793 788 783 775 767 762 757 752 748 744 737 733 727 722 712 707 700 694 682 673 666 660 645 641 638 645 638 636 635
833 832 832 831 829 825 822 819 816 814 811 808 805 801 796 792 787 780 774 768 763 759 754 748 745 740 736 729 723 714 711 700 687 679 671 663 657 648 649 650 644 639 637
834 834 834 832 830 829 824 822 821 818 815 811 808 803 799 794 790 786 781 775 769 765 762 758 753 747 741 735 728 722 713 701 695 687 680 672 667 666 659 652 649 642 640
836 836 835 835 833 830 828 827 825 823 819 817 813 809 805 802 797 792 786 780 774 770 768 764 758 752 744 736 732 726 715 707 704 695 690 685 681 673 663 655 651 647 643
838 838 838 836 835 834 833 832 830 827 824 821 818 815 812 807 802 796 790 785 779 773 769 764 759 755 749 744 736 730 722 717 714 707 700 694 685 677 672 666 660 653 649
840 839 839 839 838 838 837 836 833 831 828 825 822 819 815 811 807 802 795 788 783 778 772 766 759 754 750 746 743 739 731 726 720 715 709 702 695 688 684 677 670 664 659
841 841 841 841 841 840 839 837 835 834 832 830 826 823 820 816 812 806 799 794 789 783 777 773 771 768 765 760 754 747 742 737 732 726 720 714 707 700 694 686 680 674 671
842 842 842 843 842 842 840 838 836 836 834 832 828 824 821 818 813 808 803 798 793 787 784 783 782 779 774 771 766 760 753 748 743 736 730 723 716 709 701 694 689 684 679
842 843 844 844 843 843 841 839 838 836 836 833 830 826 822 819 815 810 805 800 796 793 792 791 789 786 783 778 773 768 762 756 749 744 737 730 723 717 710 705 699 694 690
844 845 845 845 844 843 842 840 839 837 835 834 830 826 822 819 816 812 808 804 803 801 799 798 796 792 788 784 781 775 770 764 758 751 744 737 731 725 719 713 707 701 696
846 847 846 846 845 843 842 841 839 837 835 834 831 828 824 821 817 814 812 810 808 807 805 802 799 797 793 790 785 780 775 769 762 756 751 745 739 732 726 719 713 707 701
847 847 846 845 844 844 843 842 840 838 836 835 833 830 826 824 821 819 816 814 812 809 807 804 801 798 795 792 788 783 778 772 767 762 756 750 744 738 733 726 720 714 709
846 847 845 845 845 845 844 843 841 839 837 836 834 831 828 826 824 821 819 817 815 812 809 806 803 800 797 793 789 785 781 777 772 766 760 754 748 743 737 731 725 719 714
845 846 846 846 846 845 844 843 841 839 838 836 835 833 831 828 825 823 821 818 816 813 810 807 804 800 797 793 790 786 782 778 774 769 763 757 751 746 740 734 729 723 718
845 846 847 846 846 846 845 844 842 839 838 837 836 835 832 829 827 824 821 819 815 812 809 806 803 800 796 792 789 786 783 778 774 769 764 759 754 748 742 737 732 727 722
845 846 846 846 847 846 845 844 842 840 839 838 838 836 833 830 828 825 821 818 814 811 808 804 801 797 793 790 787 783 780 776 772 768 764 760 755 749 744 739 734 729 724
845 846 846 847 847 847 845 843 842 841 840 840 838 835 832 830 827 824 820 817 813 810 806 802 799 795 791 787 784 779 776 773 770 767 763 760 755 751 746 741 736 731 726
Wind_Speed
15 15 15 16 19 16 18 18 20 20 21 22 23 23 24 23 23 21 19 18 19 19 19 19 23 21 27 27 28 28 27 27 15 25 28 23 26 25 24 32 36 38 37
13 13 14 14 15 17 18 20 21 22 21 23 25 26 29 28 27 22 19 18 19 20 20 18 18 23 17 25 27 26 26 26 24 15 26 24 27 25 27 28 30 34 34
13 13 14 16 17 18 18 18 19 20 21 23 26 30 29 31 29 24 20 21 19 20 21 19 21 26 27 25 19 18 24 25 28 26 23 25 24 23 24 26 28 29 33
13 14 15 17 17 18 17 18 20 20 21 24 27 29 30 33 31 28 24 24 24 23 25 23 26 29 28 27 21 22 20 25 27 27 23 19 21 25 28 24 20 27 29
13 14 15 15 15 17 18 19 19 20 23 25 26 30 31 35 35 31 24 25 26 26 29 28 27 30 28 24 21 20 19 21 23 24 21 22 18 18 25 29 29 22 26
15 16 17 17 18 20 19 20 21 21 23 25 27 27 32 34 36 30 26 24 27 29 32 32 32 38 38 29 25 20 21 24 21 21 23 12 18 24 26 25 23 14 7
16 17 18 18 20 21 20 21 22 23 20 23 25 27 30 36 37 32 27 26 27 29 31 37 36 41 45 39 33 27 26 24 25 24 24 7 13 25 28 27 28 26 14
15 16 18 17 17 18 20 22 21 20 22 23 25 26 27 33 37 35 28 27 28 31 34 39 37 39 44 38 34 35 34 34 29 25 23 20 15 13 9 26 30 23 17
14 15 17 18 18 18 21 19 19 20 22 23 24 27 30 34 38 39 33 29 30 30 31 33 39 38 41 40 36 34 32 35 33 27 24 23 22 24 16 13 19 17 2
14 15 14 16 18 20 18 19 19 20 20 20 22 27 26 30 35 36 35 29 26 27 28 31 37 37 38 38 36 32 30 31 33 36 36 36 36 30 28 22 17 6 6
11 13 14 13 16 17 18 19 20 21 19 21 22 24 28 30 33 36 36 32 27 25 27 31 34 35 34 37 37 37 31 29 32 30 31 35 36 41 34 26 21 18 10
12 12 14 15 15 17 20 21 20 20 22 21 23 25 28 30 31 32 33 31 29 25 27 28 28 31 32 34 38 36 34 33 31 30 30 31 31 31 33 30 24 18 13
10 12 12 13 15 17 20 19 19 19 22 23 22 24 25 27 29 30 30 30 30 25 23 25 26 29 31 35 36 37 38 36 32 31 30 30 29 30 32 35 30 19 18
8 9 9 12 14 16 16 17 19 19 19 20 21 21 22 25 28 28 28 27 26 28 26 27 27 27 29 31 36 38 38 37 32 31 31 31 31 32 31 31 25 30 19
8 9 9 10 11 11 13 16 16 19 20 20 19 21 23 25 28 27 30 31 29 28 26 31 36 37 37 36 34 34 35 35 35 33 32 32 31 30 29 29 26 23 19
8 8 9 9 8 9 8 11 16 15 16 18 19 20 19 22 24 25 26 29 28 25 30 31 30 29 30 31 33 33 33 33 33 30 30 29 29 28 28 27 25 21 18
9 8 9 8 8 8 9 10 11 12 13 15 18 21 22 21 23 25 22 23 29 29 30 29 27 28 28 29 30 30 30 31 28 29 28 28 28 27 28 26 26 23 18
13 12 9 8 8 8 9 10 9 10 10 12 14 19 20 20 22 24 24 22 27 29 28 27 27 27 27 28 30 29 29 30 30 28 28 28 28 26 26 25 24 23 20
12 12 11 10 9 8 8 9 9 10 10 11 13 15 18 18 19 22 24 25 24 25 24 24 23 24 25 25 26 27 27 28 28 28 28 27 28 25 25 24 23 22 20
11 9 7 6 6 7 8 9 10 11 11 12 14 16 17 17 20 21 21 21 20 20 21 21 21 21 22 23 24 26 27 28 29 28 27 26 27 24 24 24 23 22 20
6 5 6 7 8 7 8 9 9 10 11 12 13 16 17 14 15 16 17 18 16 17 18 18 19 19 19 21 22 24 25 27 28 27 27 26 25 24 23 22 22 21 19
6 5 6 7 7 8 7 8 9 10 11 12 12 14 18 15 15 15 16 17 16 15 15 16 17 17 18 18 18 19 21 23 25 26 27 26 24 23 23 22 22 21 20
7 6 6 6 6 7 8 8 9 10 11 12 12 13 14 14 15 16 16 16 16 16 16 16 16 17 18 18 16 17 17 19 21 22 24 24 24 24 22 21 21 21 20
6 6 6 6 6 6 7 8 9 11 11 11 11 11 12 13 14 14 15 15 17 17 16 17 16 18 19 20 17 18 16 17 20 21 24 21 23 23 20 20 19 20 19
6 6 6 6 5 6 6 8 9 10 10 10 9 10 11 12 13 14 16 17 19 20 20 20 19 21 22 22 19 20 20 18 18 21 23 19 21 21 20 18 19 18 18
7 6 6 5 5 5 6 8 10 10 10 9 9 9 11 12 13 16 17 18 21 20 21 21 21 23 23 20 20 22 19 20 19 17 20 17 19 20 20 18 18 16 16
Wind_Direction
13 12 14 15 25 19 18 12 11 10 8 10 9 6 0 356 351 343 339 336 328 323 323 318 301 300 258 255 243 237 238 242 248 253 251 241 234 233 230 234 233 232 240
12 22 19 25 28 30 26 19 21 20 18 17 16 12 10 4 359 358 352 348 353 353 350 347 338 341 331 270 245 238 234 238 244 249 248 239 232 227 227 226 226 233 237
23 26 28 24 32 34 32 27 28 28 27 23 21 16 13 10 6 5 6 7 9 12 7 7 5 4 356 340 331 281 242 241 246 247 248 241 231 222 218 220 228 232 233
30 31 31 30 28 34 32 31 33 30 28 26 26 22 17 15 12 13 14 16 17 18 18 19 16 11 359 348 333 321 312 255 241 241 242 224 214 220 214 208 210 213 218
37 35 34 34 31 37 33 33 31 32 30 29 27 26 21 20 16 15 19 23 24 22 21 22 18 12 8 12 354 338 334 315 259 236 241 231 207 206 206 216 217 219 220
44 40 35 36 36 37 34 34 34 33 34 32 30 27 25 21 18 19 22 25 26 25 22 17 17 15 13 17 21 17 23 9 344 283 223 231 223 213 211 208 200 193 214
43 40 39 35 36 36 36 37 35 32 30 31 30 28 28 24 19 19 22 26 27 26 22 18 17 16 15 14 19 21 16 24 23 360 335 299 274 225 218 208 203 206 210
49 46 42 38 38 38 40 37 34 33 33 29 29 27 25 23 21 17 23 24 25 24 24 21 19 17 17 15 16 19 16 15 19 12 8 355 8 318 278 216 200 200 209
53 51 47 46 44 43 43 36 34 34 37 34 29 30 25 23 21 20 22 21 21 22 21 23 21 19 18 18 19 15 13 11 19 25 17 7 30 26 355 263 194 174 183
54 51 50 45 47 47 36 36 35 36 37 35 34 31 29 24 23 24 23 22 22 19 18 19 22 21 21 20 22 16 11 1 7 16 17 20 27 28 35 17 11 292 172
67 61 56 52 45 43 44 42 40 36 35 35 34 31 29 27 23 24 24 24 23 21 19 16 16 19 21 23 23 21 10 5 10 12 15 16 14 19 18 18 20 17 354
75 67 56 50 49 42 44 42 40 36 34 35 32 31 27 23 24 23 24 26 25 29 22 17 16 19 22 24 23 19 18 18 14 14 14 14 11 6 3 14 17 30 24
74 68 64 59 50 46 45 42 40 37 37 34 33 31 26 23 21 20 23 24 27 31 27 21 22 23 23 23 20 20 21 19 14 14 9 4 1 0 11 14 17 28 44
82 73 67 58 54 52 50 47 44 40 39 38 35 33 30 28 25 23 23 23 24 28 25 23 24 25 26 21 18 17 18 16 13 11 5 0 2 8 9 11 10 11 25
90 78 72 66 60 61 60 52 52 47 43 39 38 36 33 32 27 27 29 27 25 26 29 29 25 21 17 15 14 14 13 12 11 6 6 4 3 5 5 8 12 15 25
94 80 73 67 62 59 60 61 57 53 44 44 44 46 43 40 32 31 34 35 34 35 37 32 26 23 20 14 9 6 9 7 4 3 4 5 3 2 1 5 9 13 12
97 89 82 76 69 64 60 59 58 48 50 49 45 45 41 38 35 34 37 39 38 38 39 32 27 22 18 16 14 12 6 4 3 4 3 1 360 1 4 4 5 5 7
97 94 93 88 81 74 70 67 61 49 32 30 37 39 39 38 36 33 35 37 35 36 36 31 25 21 18 16 12 8 5 5 5 5 3 0 360 359 359 1 2 1 0
103 100 97 92 82 72 58 50 40 34 25 19 17 20 20 24 28 30 32 36 32 30 26 25 22 20 18 15 12 9 7 5 3 2 1 0 359 360 358 355 356 357 358
105 104 98 83 63 49 38 33 29 24 19 15 15 9 6 10 17 20 23 24 23 21 18 17 15 14 13 11 9 8 7 7 4 2 360 357 357 358 357 356 355 352 355
116 102 84 65 58 45 37 31 28 27 23 20 20 14 17 21 16 16 16 15 14 11 8 7 6 5 5 4 4 4 5 4 3 0 357 355 354 354 353 353 354 354 353
112 94 76 66 58 49 42 35 32 30 25 20 13 8 20 23 20 16 12 12 10 7 5 1 1 0 356 354 354 357 360 1 0 358 355 352 350 349 348 348 349 351 352
105 91 81 76 65 51 43 37 34 32 25 18 12 8 11 14 14 13 8 5 2 1 358 357 355 354 353 352 350 347 349 352 353 353 351 351 349 346 344 344 344 346 346
102 97 94 76 65 52 46 42 38 32 25 17 11 8 9 10 7 4 1 356 353 352 350 349 346 344 343 345 346 348 340 338 346 350 353 348 347 346 342 339 338 339 342
105 99 89 79 66 56 48 41 33 27 22 16 11 8 7 6 3 360 356 353 352 349 347 346 342 338 336 335 335 336 338 335 336 344 350 350 346 346 343 338 336 333 337
108 95 86 79 65 53 45 36 28 24 18 8 3 2 1 360 355 354 352 350 349 346 345 344 342 341 340 339 332 330 331 337 330 332 343 348 348 348 345 341 339 336 336